BLOCK DM-SL R/B, 28627

Orbit data source: Space-Track

BLOCK DM-SL R/B, 28627 is space debris in HEO originally from a launch on Tue, 01 Mar 2005 UTC launched from the Sea Launch (SEAL). Debris objects in space refer to the collection of defunct objects orbiting the Earth. Examples of debris include non-operational satellites, rocket bodies, and fragments generated from explosions, collisions, or faulty payload assembly.

Loading next visibility...
Identifier
28627, 2005-008B
Orbit
HEO
Country
Flag of UnknownUnknown / SEAL
Related business
Manufacturer
RKKE
Mission
Spacecraft
Bus & Motor
BLOK DM2, 11D58M
Mass
~3,070 kg wet, 3,070 kg dry
Launch date (UTC)
2005-03-01 (21 years ago)
Launch vehicle
Unknown
Launch site
Sea Launch (SEAL)
Object type
Payload
Rocket body
Debris
Shape & HBR
Cyl, 3.1 m
Radar Cross Section
23.684 m², Large (>1 m²)

Expand to show TLE details & history
Last TLE update: 12 hours ago

TLE from 12 hours ago
0 BLOCK DM-SL R/B
1 28627U 05008B   25260.76180710 -.00000283  00000-0  00000-0 0  9997
2 28627   0.2140  83.0454 6536265  97.7730 177.1057  2.13877421160600
Epoch: 2025-09-17T18:17Z
TLE epoch observation values (Epoch: 2025-09-17T18:17:00.133Z)
Latitude
-0.21226°
Longitude
88.81638°
Altitude
35,715.384 km
Speed
1.81 km/s
True Right ascension
00h 00m 00s
True Declination
0° 12' 43"
Sunlit
Object was in full shadow at epoch
Visualization orbit readout
Latitude
Unknown
Longitude
Unknown
Altitude
Unknown
Speed
Unknown
Apparent Right ascension
Unknown
Apparent Declination
Unknown
Sunlit
N/A
Visualization observer readout
Local Sidereal Time
23:06:21
Azimuth
Unknown
Elevation
Unknown
Doppler factor
Unknown
Orbital elements
Apogee altitude
35,707.223 km
Perigee altitude
2,437.187 km
Semi-major axis
25,450.342 km
Eccentricity
0.65363
Inclination
0.214°
RAAN
83.0454°
Arg. of periapsis
97.773°
True anomaly
179.19885°
Mean anomaly
177.1057°
Eccentric anomaly
178.24962°
Mean motion
0.53457 °/min
Orbital period
673.44 mins
BSTAR
0
Loading maneuver chart data...
Computing Atmospheric mass density...
Loading historical data...
Loading historical data...
Loading historical data...
Loading historical data...
Loading historical data...
Loading historical data...
Loading historical data...
Other satellites on launch #8 in the year 2005 (2005-03-01 UTC)

Documentation

Showing up to 5 results
|